Year,Month,Day,Hour,Minute,Value (Times are PST for temperature in C)
2011,10,14,09,53,8.30
2011,10,14,09,54,8.30
2011,10,14,09,55,8.30
2011,10,14,09,56,8.30
2011,10,14,09,57,8.40
2011,10,14,09,58,8.40
2011,10,14,09,59,8.40
2011,10,14,10,00,8.50
2011,10,14,10,01,8.60
2011,10,14,10,02,8.60
2011,10,14,10,03,8.70
2011,10,14,10,04,8.70
2011,10,14,10,05,8.70
2011,10,14,10,06,8.70
2011,10,14,10,07,8.70
2011,10,14,10,08,8.70
2011,10,14,10,09,8.70
2011,10,14,10,10,8.70
2011,10,14,10,11,8.60
2011,10,14,10,12,8.60
2011,10,14,10,13,8.60
2011,10,14,10,14,8.60
2011,10,14,10,15,8.60
2011,10,14,10,16,8.60
2011,10,14,10,17,8.60
2011,10,14,10,18,8.70
2011,10,14,10,19,8.70
2011,10,14,10,20,8.70
2011,10,14,10,21,8.70
2011,10,14,10,22,8.70
2011,10,14,10,23,8.60
2011,10,14,10,24,8.60
2011,10,14,10,25,8.60
2011,10,14,10,26,8.50
2011,10,14,10,27,8.50
2011,10,14,10,28,8.50
2011,10,14,10,29,8.50
2011,10,14,10,30,8.50
2011,10,14,10,31,8.50
2011,10,14,10,32,8.50
2011,10,14,10,33,8.50
2011,10,14,10,34,8.40
2011,10,14,10,35,8.40
2011,10,14,10,36,8.40
2011,10,14,10,37,8.40
2011,10,14,10,38,8.40
2011,10,14,10,39,8.40
2011,10,14,10,40,8.40
2011,10,14,10,41,8.40
2011,10,14,10,42,8.50
2011,10,14,10,43,8.60
2011,10,14,10,44,8.60
2011,10,14,10,45,8.70
2011,10,14,10,46,8.80
2011,10,14,10,47,8.80
2011,10,14,10,48,8.90
2011,10,14,10,49,8.90
2011,10,14,10,50,8.90
2011,10,14,10,51,8.90
2011,10,14,10,52,8.90
2011,10,14,10,53,8.90
2011,10,14,10,54,8.90
2011,10,14,10,55,8.90
2011,10,14,10,56,9.00
2011,10,14,10,57,9.00
2011,10,14,10,58,9.10
2011,10,14,10,59,9.20
2011,10,14,11,00,9.20
2011,10,14,11,01,9.20
2011,10,14,11,02,9.30
2011,10,14,11,03,9.30
2011,10,14,11,04,9.30
2011,10,14,11,05,9.30
2011,10,14,11,06,9.30
2011,10,14,11,07,9.30
2011,10,14,11,08,9.30
2011,10,14,11,09,9.30
2011,10,14,11,10,9.30
2011,10,14,11,11,9.30
2011,10,14,11,12,9.30
2011,10,14,11,13,9.30
2011,10,14,11,14,9.40
2011,10,14,11,15,9.40
2011,10,14,11,16,9.50
2011,10,14,11,17,9.60
2011,10,14,11,18,9.70
2011,10,14,11,19,9.70
2011,10,14,11,20,9.70
2011,10,14,11,21,9.70
2011,10,14,11,22,9.70
2011,10,14,11,23,9.70
2011,10,14,11,24,9.60
2011,10,14,11,25,9.60
2011,10,14,11,26,9.60
2011,10,14,11,27,9.60
2011,10,14,11,28,9.50
2011,10,14,11,29,9.50
2011,10,14,11,30,9.40
2011,10,14,11,31,9.40
2011,10,14,11,32,9.40
2011,10,14,11,33,9.40
2011,10,14,11,34,9.40
2011,10,14,11,35,9.50
2011,10,14,11,36,9.50
2011,10,14,11,37,9.60
2011,10,14,11,38,9.60
2011,10,14,11,39,9.70
2011,10,14,11,40,9.80
2011,10,14,11,41,9.90
2011,10,14,11,42,9.90
2011,10,14,11,43,9.90
2011,10,14,11,44,9.90
2011,10,14,11,45,9.80
2011,10,14,11,46,9.80
2011,10,14,11,47,9.80
2011,10,14,11,48,9.80
2011,10,14,11,49,9.80
2011,10,14,11,50,9.90
2011,10,14,11,51,9.90
2011,10,14,11,52,10.00
2011,10,14,11,53,10.00
2011,10,14,11,54,10.10
2011,10,14,11,55,10.10
2011,10,14,11,56,10.20
2011,10,14,11,57,10.20
2011,10,14,11,58,10.30
2011,10,14,11,59,10.30
2011,10,14,12,00,10.30
2011,10,14,12,01,10.30
2011,10,14,12,02,10.30
2011,10,14,12,03,10.30
2011,10,14,12,04,10.30
2011,10,14,12,05,10.30
2011,10,14,12,06,10.30
2011,10,14,12,07,10.30
2011,10,14,12,08,10.30
2011,10,14,12,09,10.40
2011,10,14,12,10,10.40
2011,10,14,12,11,10.40
2011,10,14,12,12,10.40
2011,10,14,12,13,10.40
2011,10,14,12,14,10.40
2011,10,14,12,15,10.40
2011,10,14,12,16,10.40
2011,10,14,12,17,10.50
2011,10,14,12,18,10.50
2011,10,14,12,19,10.50
2011,10,14,12,20,10.60
2011,10,14,12,21,10.60
2011,10,14,12,22,10.50
2011,10,14,12,23,10.40
2011,10,14,12,24,10.40
2011,10,14,12,25,10.30
2011,10,14,12,26,10.30
2011,10,14,12,27,10.40
2011,10,14,12,28,10.40
2011,10,14,12,29,10.40
2011,10,14,12,30,10.50
2011,10,14,12,31,10.50
2011,10,14,12,32,10.50
2011,10,14,12,33,10.50
2011,10,14,12,34,10.50
2011,10,14,12,35,10.60
2011,10,14,12,36,10.60
2011,10,14,12,37,10.60
2011,10,14,12,38,10.60
2011,10,14,12,39,10.60
2011,10,14,12,40,10.60
2011,10,14,12,41,10.50
2011,10,14,12,42,10.60
2011,10,14,12,43,10.60
2011,10,14,12,44,10.70
2011,10,14,12,45,10.70
2011,10,14,12,46,10.80
2011,10,14,12,47,10.80
2011,10,14,12,48,10.80
2011,10,14,12,49,10.80
2011,10,14,12,50,10.80
2011,10,14,12,51,10.80
2011,10,14,12,52,10.80
2011,10,14,12,53,10.80
2011,10,14,12,54,10.90
2011,10,14,12,55,10.90
2011,10,14,12,56,11.00
2011,10,14,12,57,11.00
2011,10,14,12,58,11.10
2011,10,14,12,59,11.10
2011,10,14,13,00,11.00
2011,10,14,13,01,11.00
2011,10,14,13,02,11.10
2011,10,14,13,03,11.10
2011,10,14,13,04,11.10
2011,10,14,13,05,11.20
2011,10,14,13,06,11.20
2011,10,14,13,07,11.30
2011,10,14,13,08,11.30
2011,10,14,13,09,11.20
2011,10,14,13,10,11.20
2011,10,14,13,11,11.20
2011,10,14,13,12,11.10
2011,10,14,13,13,11.20
2011,10,14,13,14,11.20
2011,10,14,13,15,11.20
2011,10,14,13,16,11.20
2011,10,14,13,17,11.20
2011,10,14,13,18,11.20
2011,10,14,13,19,11.20
2011,10,14,13,20,11.20
2011,10,14,13,21,11.20
2011,10,14,13,22,11.20
2011,10,14,13,23,11.20
2011,10,14,13,24,11.10
2011,10,14,13,25,11.10
2011,10,14,13,26,11.20
2011,10,14,13,27,11.20
2011,10,14,13,28,11.20
2011,10,14,13,29,11.20
2011,10,14,13,30,11.30
2011,10,14,13,31,11.30
2011,10,14,13,32,11.30
2011,10,14,13,33,11.30
2011,10,14,13,34,11.30
2011,10,14,13,35,11.30
2011,10,14,13,36,11.30
2011,10,14,13,37,11.30
2011,10,14,13,38,11.30
2011,10,14,13,39,11.40
2011,10,14,13,40,11.40
2011,10,14,13,41,11.40
2011,10,14,13,42,11.40
2011,10,14,13,43,11.40
2011,10,14,13,44,11.40
2011,10,14,13,45,11.50
2011,10,14,13,46,11.50
2011,10,14,13,47,11.50
2011,10,14,13,48,11.50
2011,10,14,13,49,11.40
2011,10,14,13,50,11.40
2011,10,14,13,51,11.30
2011,10,14,13,52,11.30
2011,10,14,13,53,11.30
2011,10,14,13,54,11.30
2011,10,14,13,55,11.30
2011,10,14,13,56,11.30
2011,10,14,13,57,11.30
2011,10,14,13,58,11.20
2011,10,14,13,59,11.20
2011,10,14,14,00,11.20
2011,10,14,14,01,11.20
2011,10,14,14,02,11.20
2011,10,14,14,03,11.20
2011,10,14,14,04,11.20
2011,10,14,14,05,11.10
2011,10,14,14,06,11.10
2011,10,14,14,07,11.20
2011,10,14,14,08,11.20
2011,10,14,14,09,11.20
2011,10,14,14,10,11.20
2011,10,14,14,11,11.20
2011,10,14,14,12,11.20
2011,10,14,14,13,11.20
2011,10,14,14,14,11.20
2011,10,14,14,15,11.20
2011,10,14,14,16,11.30
2011,10,14,14,17,11.30
2011,10,14,14,18,11.30
2011,10,14,14,19,11.30
2011,10,14,14,20,11.30
2011,10,14,14,21,11.40
2011,10,14,14,22,11.50
2011,10,14,14,23,11.50
2011,10,14,14,24,11.60
2011,10,14,14,25,11.70
2011,10,14,14,26,11.70
2011,10,14,14,27,11.80
2011,10,14,14,28,11.80
2011,10,14,14,29,11.80
2011,10,14,14,30,11.80
2011,10,14,14,31,11.80
2011,10,14,14,32,11.80
2011,10,14,14,33,11.80
2011,10,14,14,34,11.70
2011,10,14,14,35,11.70
2011,10,14,14,36,11.70
2011,10,14,14,37,11.70
2011,10,14,14,38,11.70
2011,10,14,14,39,11.70
2011,10,14,14,40,11.70
2011,10,14,14,41,11.80
2011,10,14,14,42,11.80
2011,10,14,14,43,11.90
2011,10,14,14,44,11.90
2011,10,14,14,45,12.00
2011,10,14,14,46,12.00
2011,10,14,14,47,11.90
2011,10,14,14,48,11.90
2011,10,14,14,49,11.90
2011,10,14,14,50,11.80
2011,10,14,14,51,11.80
2011,10,14,14,52,11.80
2011,10,14,14,53,11.80
2011,10,14,14,54,11.80
2011,10,14,14,55,11.80
2011,10,14,14,56,11.80
2011,10,14,14,57,11.90
2011,10,14,14,58,11.80
2011,10,14,14,59,11.80
2011,10,14,15,00,11.80
2011,10,14,15,01,11.80
2011,10,14,15,02,11.80
2011,10,14,15,03,11.80
2011,10,14,15,04,11.70
2011,10,14,15,05,11.70
2011,10,14,15,06,11.60
2011,10,14,15,07,11.60
2011,10,14,15,08,11.60
2011,10,14,15,09,11.60
2011,10,14,15,10,11.50
2011,10,14,15,11,11.30
2011,10,14,15,12,11.30
2011,10,14,15,13,11.30
2011,10,14,15,14,11.30
2011,10,14,15,15,11.30
2011,10,14,15,16,11.30
2011,10,14,15,17,11.30
2011,10,14,15,18,11.20
2011,10,14,15,19,11.20
2011,10,14,15,20,11.30
2011,10,14,15,21,11.40
2011,10,14,15,22,11.50
2011,10,14,15,23,11.60
2011,10,14,15,24,11.70
2011,10,14,15,25,11.70
2011,10,14,15,26,11.70
2011,10,14,15,27,11.70
2011,10,14,15,28,11.70
2011,10,14,15,29,11.70
2011,10,14,15,30,11.70
2011,10,14,15,31,11.70
2011,10,14,15,32,11.70
2011,10,14,15,33,11.80
2011,10,14,15,34,11.80
2011,10,14,15,35,11.80
2011,10,14,15,36,11.70
2011,10,14,15,37,11.70
2011,10,14,15,38,11.70
2011,10,14,15,39,11.70
2011,10,14,15,40,11.70
2011,10,14,15,41,11.70
2011,10,14,15,42,11.80
2011,10,14,15,43,11.80
2011,10,14,15,44,11.80
2011,10,14,15,45,11.80
2011,10,14,15,46,11.80
2011,10,14,15,47,11.80
2011,10,14,15,48,11.80
2011,10,14,15,49,11.80
2011,10,14,15,50,11.80
2011,10,14,15,51,11.80
2011,10,14,15,52,11.70
2011,10,14,15,53,11.80
2011,10,14,15,54,11.80
2011,10,14,15,55,11.80
2011,10,14,15,56,11.80
2011,10,14,15,57,11.80
2011,10,14,15,58,11.90
2011,10,14,15,59,11.90
2011,10,14,16,00,12.00
2011,10,14,16,01,12.10
2011,10,14,16,02,12.10
2011,10,14,16,03,12.20
2011,10,14,16,04,12.20
2011,10,14,16,05,12.20
2011,10,14,16,06,12.10
2011,10,14,16,07,12.10
2011,10,14,16,08,12.00
2011,10,14,16,09,11.90
2011,10,14,16,10,11.90
2011,10,14,16,11,11.90
2011,10,14,16,12,11.90
2011,10,14,16,13,11.90
2011,10,14,16,14,11.90
2011,10,14,16,15,11.80
2011,10,14,16,16,11.80
2011,10,14,16,17,11.80
2011,10,14,16,18,11.80
2011,10,14,16,19,11.80
2011,10,14,16,20,11.70
2011,10,14,16,21,11.70
2011,10,14,16,22,11.70
2011,10,14,16,23,11.70
2011,10,14,16,24,11.70
2011,10,14,16,25,11.70
2011,10,14,16,26,11.70
2011,10,14,16,27,11.70
2011,10,14,16,28,11.70
2011,10,14,16,29,11.70
2011,10,14,16,30,11.60
2011,10,14,16,31,11.60
2011,10,14,16,32,11.70
2011,10,14,16,33,11.70
2011,10,14,16,34,11.70
2011,10,14,16,35,11.70
2011,10,14,16,36,11.70
2011,10,14,16,37,11.70
2011,10,14,16,38,11.70
2011,10,14,16,39,11.70
2011,10,14,16,40,11.60
2011,10,14,16,41,11.60
2011,10,14,16,42,11.60
2011,10,14,16,43,11.60
2011,10,14,16,44,11.70
2011,10,14,16,45,11.60
2011,10,14,16,46,11.60
2011,10,14,16,47,11.60
2011,10,14,16,48,11.60
2011,10,14,16,49,11.70
2011,10,14,16,50,11.70
2011,10,14,16,51,11.70
2011,10,14,16,52,11.70
2011,10,14,16,53,11.70
2011,10,14,16,54,11.60
2011,10,14,16,55,11.60
2011,10,14,16,56,11.60
2011,10,14,16,57,11.60
2011,10,14,16,58,11.70
2011,10,14,16,59,11.70
2011,10,14,17,00,11.70
2011,10,14,17,01,11.60
2011,10,14,17,02,11.70
2011,10,14,17,03,11.70
2011,10,14,17,04,11.70
2011,10,14,17,05,11.70
2011,10,14,17,06,11.70
2011,10,14,17,07,11.70
2011,10,14,17,08,11.70
2011,10,14,17,09,11.60
2011,10,14,17,10,11.60
2011,10,14,17,11,11.60
2011,10,14,17,12,11.60
2011,10,14,17,13,11.60
2011,10,14,17,14,11.60
2011,10,14,17,15,11.60
2011,10,14,17,16,11.60
2011,10,14,17,17,11.60
2011,10,14,17,18,11.50
2011,10,14,17,19,11.50
2011,10,14,17,20,11.50
2011,10,14,17,21,11.50
2011,10,14,17,22,11.50
2011,10,14,17,23,11.50
2011,10,14,17,24,11.50
2011,10,14,17,25,11.50
2011,10,14,17,26,11.60
2011,10,14,17,27,11.50
2011,10,14,17,28,11.50
2011,10,14,17,29,11.50
2011,10,14,17,30,11.40
2011,10,14,17,31,11.40
2011,10,14,17,32,11.40
2011,10,14,17,33,11.40
2011,10,14,17,34,11.40
2011,10,14,17,35,11.40
2011,10,14,17,36,11.40
2011,10,14,17,37,11.40
2011,10,14,17,38,11.30
2011,10,14,17,39,11.30
2011,10,14,17,40,11.30
2011,10,14,17,41,11.30
2011,10,14,17,42,11.30
2011,10,14,17,43,11.30
2011,10,14,17,44,11.20
2011,10,14,17,45,11.20
2011,10,14,17,46,11.20
2011,10,14,17,47,11.20
2011,10,14,17,48,11.10
2011,10,14,17,49,11.10
2011,10,14,17,50,11.10
2011,10,14,17,51,11.10
2011,10,14,17,52,11.00
2011,10,14,17,53,11.00
2011,10,14,17,54,11.00
2011,10,14,17,55,10.90
2011,10,14,17,56,10.90
2011,10,14,17,57,10.90
2011,10,14,17,58,10.80
2011,10,14,17,59,10.80
2011,10,14,18,00,10.80
2011,10,14,18,01,10.80
2011,10,14,18,02,10.80
2011,10,14,18,03,10.80
2011,10,14,18,04,10.70
2011,10,14,18,05,10.70
2011,10,14,18,06,10.70
2011,10,14,18,07,10.70
2011,10,14,18,08,10.70
2011,10,14,18,09,10.60
2011,10,14,18,10,10.60
2011,10,14,18,11,10.60
2011,10,14,18,12,10.60
2011,10,14,18,13,10.50
2011,10,14,18,14,10.50
2011,10,14,18,15,10.50
2011,10,14,18,16,10.40
2011,10,14,18,17,10.40
2011,10,14,18,18,10.40
2011,10,14,18,19,10.40
2011,10,14,18,20,10.30
2011,10,14,18,21,10.30
2011,10,14,18,22,10.30
2011,10,14,18,23,10.30
2011,10,14,18,24,10.30
2011,10,14,18,25,10.30
2011,10,14,18,26,10.30
2011,10,14,18,27,10.30
2011,10,14,18,28,10.30
2011,10,14,18,29,10.30
2011,10,14,18,30,10.30
2011,10,14,18,31,10.30
2011,10,14,18,32,10.30
